User: anonymous   Login
Location: Newark
(43.0000°N, 1.6781°W)
Time: 10:00:05
(UTC+00:00)
Language:

XW-2F - Orbit

View from above orbital plane
View from above orbital plane
View from above satellite
View from above satellite

Ground track
Ground track

The orbit data is extracted from the following two-line orbital elements,

1 40910U 15049M   22333.81186519  .00010555  00000-0  40604-3 0  9998
2 40910  97.4716 340.4448 0013855 108.9258  16.3623 15.26490099398378
Epoch (UTC): 29 November 2022 19:29:05
Eccentricity: 0.0013855
inclination: 97.4716°
perigee height: 477 km
apogee height: 496 km
right ascension of ascending node: 340.4448°
argument of perigee: 108.9258°
revolutions per day: 15.26490099
mean anomaly at epoch: 16.3623°
orbit number at epoch: 39837

The dashed part of the orbit path shows where the satellite is in the earth's shadow,  

DLR